Overview Statistics Trail Chart Weather Telemetry Raw packets
 

This is the latest recevied weather packets stored in our database for station/object WX5RP. If no packets are shown the sender has not sent any weather packets the latest 10 day(s).

<< 6 7 8 9 10 11 12 >>
Time Temp. Humidity Pressure Rain* Wind** Luminosity Snow
1777872916 13.33° C 49% 1012.5 hPa 0 mm - 0 W/m² -
1777872316 12.78° C 50% 1012.5 hPa 0 mm - 0 W/m² -
1777871716 12.78° C 49% 1012.5 hPa 0 mm - 0 W/m² -
1777871116 12.22° C 54% 1012.7 hPa 0 mm - 0 W/m² -
1777870516 12.22° C 55% 1012 hPa 0 mm - 0 W/m² -
1777869926 13.33° C 52% 1012.3 hPa 0 mm - 0 W/m² -
1777869316 15° C 46% 1011.8 hPa 0 mm - 0 W/m² -
1777868716 15.56° C 43% 1011.4 hPa 0 mm - 0 W/m² -
1777868116 16.11° C 42% 1011.1 hPa 0 mm - 0 W/m² -
1777867516 17.22° C 40% 1011.8 hPa 0 mm - 0 W/m² -
1777866916 17.78° C 38% 1011.5 hPa 0 mm - 0 W/m² -
1777866315 17.78° C 39% 1011.3 hPa 0 mm - 0 W/m² -
1777865715 17.78° C 38% 1010.8 hPa 0 mm - 0 W/m² -
1777865116 18.33° C 37% 1010.2 hPa 0 mm - 0 W/m² -
1777864515 18.89° C 37% 1010.2 hPa 0 mm - 0 W/m² -
1777863915 19.44° C 33% 1011.1 hPa 0 mm - 0 W/m² -
1777863315 20° C 32% 1010.8 hPa 0 mm - 7 W/m² -
1777862715 20° C 32% 1010.8 hPa 0 mm - 15 W/m² -
1777862117 20° C 31% 1010.5 hPa 0 mm - 20 W/m² -
1777861517 20° C 32% 1010.3 hPa 0 mm - 24 W/m² -
1777860917 20.56° C 31% 1010.3 hPa 0 mm - 38 W/m² -
1777860317 20° C 30% 1011 hPa 0 mm - 63 W/m² -
1777859716 19.44° C 36% 1010.8 hPa 0 mm - 80 W/m² -
1777859116 20° C 36% 1010.8 hPa 0 mm - 89 W/m² -
1777858516 20° C 30% 1010.4 hPa 0 mm - 90 W/m² -

* Rain latest hour (hover to see other rain measurements)
** Current wind speed in m/s (hover to see current wind gust speed)